Home   Weather   Starnberg   Past weeks

Flag for Germany Past Weather in Starnberg, Bavaria, Germany — Yesterday and Last 2 Weeks

Now
32 °F

Passing clouds.


Feels Like: 32 °F
Forecast: 29 / 40 °F
Wind: 2 mph from South

Location: Landsberg

Current Time: Dec 10, 2016 at 2:24:28 am

Latest Report: Dec 10, 2016 at 1:20 am


Visibility: N/A

Pressure: 30.39 "Hg (28.23 "Hg at 590m altitude)

Humidity: 80%

Dew Point: 27 °F

Location of StarnbergLocation

Past Weather in Starnberg — Graph

°F

Starnberg Temperature Yesterday

Maximum temperature yesterday: 50 °F (at 12:20 pm)
Minimum temperature yesterday: 28 °F (at 2:20 am)
Average temperature yesterday: 39 °F

High & Low Weather Summary for the Past Weeks

 TemperatureHumidityPressure
High50 °F (Dec 8, 2:20 pm)100% (Nov 25, 12:20 am)30.54 "Hg (Nov 25, 12:20 am)
Low19 °F (Nov 30, 12:20 am)32% (Dec 8, 2:20 pm)29.98 "Hg (Nov 25, 2:20 am)
Average33 °F84%30.27 "Hg
* Reported Nov 25 12:20 am — Dec 10 12:20 am, Starnberg, Weather by CustomWeather, © 2016

Note: Actual official high and low records may vary slightly from our data, if they occured in-between our weather recording intervals... More about our weather records

Advertising

Starnberg Weather History for the Previous 24 Hours

Scroll right to see more
 ConditionsComfort  
Time TempWeatherWind HumidityBarometerVisibility
12:20 am
Sat, Dec 10
32 °FPassing clouds.5 mph80%30.39 "HgN/A
11:20 pm
Fri, Dec 9
34 °FPassing clouds.2 mph75%30.42 "HgN/A
9:20 pm36 °FPassing clouds.3 mph65%30.45 "HgN/A
8:20 pm37 °FPartly cloudy.5 mph65%30.45 "HgN/A
7:20 pm36 °FPassing clouds.3 mph70%30.45 "HgN/A
6:20 pm36 °FPassing clouds.6 mph70%30.45 "HgN/A
5:20 pm37 °FPassing clouds.5 mph60%30.45 "HgN/A
4:20 pm41 °FPartly sunny.5 mph49%30.45 "HgN/A
3:20 pm48 °FBroken clouds.7 mph34%30.45 "HgN/A
2:20 pm50 °FPartly sunny.9 mph35%30.45 "HgN/A
1:20 pm50 °FPartly sunny.8 mph35%30.45 "HgN/A
12:20 pm50 °FPartly sunny.12 mph35%30.48 "HgN/A
11:20 am48 °FPartly sunny.16 mph34%30.45 "HgN/A
10:20 am45 °FPartly sunny.7 mph39%30.48 "HgN/A
9:20 am43 °FPartly sunny.7 mph39%30.45 "HgN/A
8:20 am41 °FPartly sunny.7 mph42%30.45 "HgN/A
7:20 am36 °FPassing clouds.8 mph56%30.45 "HgN/A
6:20 am34 °FPassing clouds.5 mph51%30.45 "HgN/A
5:20 am39 °FPassing clouds.7 mph39%30.45 "HgN/A
4:20 am34 °FPassing clouds.7 mph51%30.45 "HgN/A
3:20 am34 °FPassing clouds.7 mph56%30.45 "HgN/A
2:20 am28 °FPassing clouds.7 mph69%30.45 "HgN/A
Weather by CustomWeather, © 2016

See weather overviewHow to use our weather pages